DLH8BM EDDN-EDDW

Flight info

Callsign DLH8BM
Flight time 0h 43m
Altitude 30000
Route SULUS1G SULUS L604 MASEK/N0397F290 DCT ELNAT/N0401F300 P605 NORTA Z595 NIE Z88 VERED
Aircraft A320/M-SDE3FGHIRWY/LB1

Departure

Time 2026-05-04 17:55
Airport Nuremberg Airport (EDDN)

Arrival

Time 2026-05-04 18:38
Airport Bremen Airport (EDDW)
Time Latitude Longitude Altitude Speed Heading
2026-05-04 17:40 49.49514 11.07853 1026 ft 0 kts 188°
2026-05-04 17:48 49.49530 11.07857 1026 ft 2 kts 192°
2026-05-04 17:48 49.49547 11.07862 1024 ft 2 kts 189°
2026-05-04 17:48 49.49563 11.07865 1026 ft 2 kts 164°
2026-05-04 17:49 49.49576 11.07851 1025 ft 2 kts 111°
2026-05-04 17:49 49.49579 11.07839 1027 ft 0 kts 102°
2026-05-04 17:50 49.49574 11.07886 1027 ft 10 kts 98°
2026-05-04 17:50 49.49559 11.08035 1028 ft 16 kts 98°
2026-05-04 17:50 49.49543 11.08212 1024 ft 17 kts 97°
2026-05-04 17:51 49.49546 11.08331 1028 ft 8 kts 49°
2026-05-04 17:51 49.49587 11.08356 1032 ft 7 kts 15°
2026-05-04 17:51 49.49614 11.08416 1034 ft 8 kts 82°
2026-05-04 17:51 49.49605 11.08526 1035 ft 13 kts 98°
2026-05-04 17:52 49.49591 11.08686 1037 ft 17 kts 98°
2026-05-04 17:52 49.49573 11.08874 1038 ft 18 kts 98°
2026-05-04 17:52 49.49553 11.09072 1040 ft 19 kts 99°
2026-05-04 17:52 49.49536 11.09234 1043 ft 9 kts 99°
2026-05-04 17:53 49.49528 11.09312 1045 ft 7 kts 93°
2026-05-04 17:53 49.49552 11.09412 1047 ft 11 kts 53°
2026-05-04 17:53 49.49598 11.09505 1050 ft 11 kts 52°
2026-05-04 17:53 49.49656 11.09571 1052 ft 10 kts
2026-05-04 17:54 49.49701 11.09513 1052 ft 6 kts 282°
2026-05-04 17:54 49.49702 11.09498 1052 ft 0 kts 279°
2026-05-04 17:54 49.49716 11.09370 1049 ft 44 kts 279°
2026-05-04 17:54 49.49798 11.08532 1037 ft 115 kts 278°
2026-05-04 17:55 49.49946 11.07014 1055 ft 167 kts 279°
2026-05-04 17:55 49.50103 11.05265 1772 ft 165 kts 280°
2026-05-04 17:55 49.50266 11.03492 2559 ft 166 kts 281°
2026-05-04 17:55 49.50443 11.01660 2990 ft 183 kts 281°
2026-05-04 17:56 49.50652 10.99603 3483 ft 196 kts 280°
2026-05-04 17:56 49.50876 10.97494 3980 ft 212 kts 280°
2026-05-04 17:56 49.51150 10.95144 4504 ft 232 kts 285°
2026-05-04 17:56 49.52032 10.93009 5063 ft 250 kts 322°
2026-05-04 17:57 49.53677 10.91965 5664 ft 268 kts 351°
2026-05-04 17:57 49.55579 10.91827 6439 ft 278 kts
2026-05-04 17:57 49.57536 10.92023 7309 ft 285 kts
2026-05-04 17:57 49.59524 10.92308 8212 ft 290 kts
2026-05-04 17:58 49.61555 10.92578 9108 ft 296 kts
2026-05-04 17:58 49.63626 10.92771 9977 ft 301 kts
2026-05-04 17:58 49.65762 10.92880 10556 ft 317 kts 360°
2026-05-04 17:58 49.68034 10.92943 10996 ft 336 kts 359°
2026-05-04 17:59 49.70400 10.92715 11647 ft 344 kts 347°
2026-05-04 17:59 49.72702 10.91649 12398 ft 347 kts 336°
2026-05-04 17:59 49.77305 10.89079 14010 ft 356 kts 338°
2026-05-04 18:00 49.79665 10.87824 14721 ft 360 kts 338°
2026-05-04 18:00 49.82058 10.86560 15448 ft 363 kts 338°
2026-05-04 18:00 49.84481 10.85278 16177 ft 366 kts 338°
2026-05-04 18:00 49.86894 10.83995 16907 ft 369 kts 338°
2026-05-04 18:01 49.89332 10.82694 17635 ft 372 kts 338°
2026-05-04 18:01 49.91815 10.81367 18340 ft 376 kts 338°
2026-05-04 18:01 49.94321 10.80023 18953 ft 379 kts 338°
2026-05-04 18:02 49.99323 10.77325 20150 ft 385 kts 338°
2026-05-04 18:02 50.01904 10.75929 20754 ft 389 kts 338°
2026-05-04 18:02 50.04448 10.74541 21317 ft 392 kts 336°
2026-05-04 18:02 50.06892 10.72691 21857 ft 391 kts 325°
2026-05-04 18:03 50.09086 10.70192 22423 ft 391 kts 315°
2026-05-04 18:03 50.11005 10.67190 22971 ft 392 kts 310°
2026-05-04 18:03 50.12888 10.64094 23532 ft 395 kts 310°
2026-05-04 18:03 50.14879 10.60826 24012 ft 398 kts 310°
2026-05-04 18:04 50.16722 10.57807 24463 ft 400 kts 310°
2026-05-04 18:04 50.18644 10.54661 24949 ft 401 kts 310°
2026-05-04 18:04 50.22511 10.48307 25894 ft 405 kts 309°
2026-05-04 18:05 50.24511 10.45185 26336 ft 410 kts 316°
2026-05-04 18:05 50.26946 10.42783 26765 ft 419 kts 329°
2026-05-04 18:05 50.29557 10.40727 27201 ft 421 kts 329°
2026-05-04 18:05 50.32193 10.38686 27637 ft 424 kts 329°
2026-05-04 18:06 50.37545 10.34573 28506 ft 428 kts 329°
2026-05-04 18:06 50.40227 10.32506 28927 ft 430 kts 329°
2026-05-04 18:06 50.42915 10.30431 29344 ft 432 kts 329°
2026-05-04 18:07 50.44717 10.29039 29619 ft 434 kts 329°
2026-05-04 18:07 50.47420 10.26943 29933 ft 436 kts 328°
2026-05-04 18:07 50.52956 10.22614 29983 ft 452 kts 328°
2026-05-04 18:08 50.58690 10.18124 29984 ft 461 kts 328°
2026-05-04 18:08 50.64436 10.13627 29984 ft 461 kts 328°
2026-05-04 18:09 50.75971 10.04573 29989 ft 461 kts 328°
2026-05-04 18:10 50.81704 10.00045 29992 ft 461 kts 328°
2026-05-04 18:10 50.87431 9.95496 29987 ft 460 kts 328°
2026-05-04 18:11 50.93151 9.90948 29986 ft 460 kts 328°
2026-05-04 18:11 50.98871 9.86400 29981 ft 460 kts 328°
2026-05-04 18:12 51.04581 9.81835 29979 ft 460 kts 328°
2026-05-04 18:12 51.10294 9.77265 29978 ft 459 kts 328°
2026-05-04 18:13 51.16038 9.72651 29980 ft 459 kts 328°
2026-05-04 18:13 51.22225 9.69756 29966 ft 475 kts 351°
2026-05-04 18:14 51.25556 9.69874 29692 ft 482 kts
2026-05-04 18:14 51.28893 9.70427 29415 ft 483 kts
2026-05-04 18:14 51.32242 9.70992 29139 ft 484 kts
2026-05-04 18:15 51.38942 9.72111 29001 ft 485 kts
2026-05-04 18:15 51.45656 9.73215 28996 ft 485 kts
2026-05-04 18:16 51.52422 9.74371 28992 ft 486 kts
2026-05-04 18:16 51.59098 9.75653 28990 ft 487 kts
2026-05-04 18:17 51.69237 9.77645 28984 ft 487 kts
2026-05-04 18:18 51.79340 9.79554 28913 ft 489 kts
2026-05-04 18:18 51.82720 9.80193 28329 ft 488 kts
2026-05-04 18:18 51.86092 9.80382 27643 ft 482 kts 352°
2026-05-04 18:18 51.89375 9.79488 27023 ft 476 kts 340°
2026-05-04 18:19 51.95646 9.75982 25745 ft 479 kts 336°
2026-05-04 18:19 51.98795 9.74183 25133 ft 481 kts 337°
2026-05-04 18:19 52.01936 9.72311 24537 ft 480 kts 332°
2026-05-04 18:20 52.04815 9.69535 23951 ft 474 kts 318°
2026-05-04 18:20 52.07355 9.66109 23351 ft 475 kts 316°
2026-05-04 18:20 52.09888 9.62633 22797 ft 478 kts 316°
2026-05-04 18:20 52.12413 9.59154 22257 ft 470 kts 316°
2026-05-04 18:21 52.14862 9.55773 21738 ft 464 kts 316°
2026-05-04 18:21 52.17346 9.52339 21206 ft 460 kts 316°
2026-05-04 18:21 52.19776 9.48970 20695 ft 457 kts 316°
2026-05-04 18:21 52.22187 9.45622 20199 ft 454 kts 316°
2026-05-04 18:22 52.24547 9.42337 19719 ft 451 kts 316°
2026-05-04 18:22 52.26924 9.39026 19242 ft 447 kts 316°
2026-05-04 18:22 52.29311 9.35697 18760 ft 444 kts 316°
2026-05-04 18:22 52.31657 9.32422 18293 ft 441 kts 317°
2026-05-04 18:23 52.33983 9.29171 17761 ft 438 kts 317°
2026-05-04 18:23 52.36290 9.25943 17238 ft 435 kts 317°
2026-05-04 18:23 52.38576 9.22741 16707 ft 431 kts 317°
2026-05-04 18:23 52.40847 9.19559 16203 ft 427 kts 317°
2026-05-04 18:24 52.43092 9.16406 15694 ft 424 kts 317°
2026-05-04 18:24 52.45346 9.13232 15191 ft 420 kts 317°
2026-05-04 18:24 52.47546 9.10126 14804 ft 413 kts 318°
2026-05-04 18:24 52.49685 9.07109 14556 ft 397 kts 318°
2026-05-04 18:25 52.51719 9.04238 14315 ft 383 kts 318°
2026-05-04 18:25 52.53711 9.01419 13965 ft 374 kts 318°
2026-05-04 18:25 52.55666 8.98650 13586 ft 366 kts 318°
2026-05-04 18:25 52.57568 8.95950 13193 ft 358 kts 318°
2026-05-04 18:26 52.59432 8.93302 12801 ft 351 kts 317°
2026-05-04 18:26 52.61258 8.90706 12413 ft 344 kts 317°
2026-05-04 18:26 52.63053 8.88153 12033 ft 337 kts 317°
2026-05-04 18:26 52.64812 8.85646 11650 ft 332 kts 317°
2026-05-04 18:27 52.66542 8.83182 11275 ft 327 kts 317°
2026-05-04 18:27 52.68246 8.80749 10991 ft 320 kts 317°
2026-05-04 18:27 52.69906 8.78380 10736 ft 312 kts 317°
2026-05-04 18:27 52.71527 8.76060 10506 ft 305 kts 317°
2026-05-04 18:28 52.73109 8.73790 10264 ft 298 kts 317°
2026-05-04 18:28 52.74660 8.71565 10029 ft 292 kts 317°
2026-05-04 18:28 52.76181 8.69385 9752 ft 288 kts 317°
2026-05-04 18:28 52.77685 8.67226 9415 ft 285 kts 317°
2026-05-04 18:29 52.79221 8.65015 9031 ft 283 kts 317°
2026-05-04 18:29 52.80660 8.62942 8653 ft 281 kts 317°
2026-05-04 18:29 52.82138 8.60810 8278 ft 279 kts 317°
2026-05-04 18:29 52.83597 8.58705 7902 ft 277 kts 317°
2026-05-04 18:30 52.86617 8.54813 7022 ft 274 kts 323°
2026-05-04 18:30 52.88185 8.53050 6509 ft 271 kts 324°
2026-05-04 18:30 52.89742 8.51310 5973 ft 269 kts 324°
2026-05-04 18:31 52.91290 8.49580 5421 ft 268 kts 324°
2026-05-04 18:31 52.92847 8.47836 4880 ft 265 kts 324°
2026-05-04 18:31 52.94341 8.46169 4725 ft 248 kts 324°
2026-05-04 18:31 52.95720 8.44634 4516 ft 236 kts 324°
2026-05-04 18:32 52.97073 8.43121 4128 ft 233 kts 324°
2026-05-04 18:32 52.98458 8.41761 3797 ft 233 kts 340°
2026-05-04 18:32 53.00046 8.41511 3632 ft 227 kts
2026-05-04 18:32 53.01535 8.42224 3504 ft 220 kts 27°
2026-05-04 18:33 53.02744 8.43693 3379 ft 213 kts 47°
2026-05-04 18:33 53.03448 8.45291 3271 ft 207 kts 63°
2026-05-04 18:33 53.03903 8.47518 3158 ft 194 kts 82°
2026-05-04 18:33 53.03983 8.49732 3069 ft 191 kts 89°
2026-05-04 18:34 53.04040 8.51932 2993 ft 191 kts 89°
2026-05-04 18:34 53.04078 8.53391 2863 ft 190 kts 89°
2026-05-04 18:34 53.04132 8.55570 2639 ft 188 kts 88°
2026-05-04 18:34 53.04187 8.57747 2394 ft 184 kts 88°
2026-05-04 18:35 53.04238 8.59843 2151 ft 178 kts 88°
2026-05-04 18:35 53.04285 8.61784 1921 ft 164 kts 87°
2026-05-04 18:35 53.04326 8.63569 1740 ft 145 kts 87°
2026-05-04 18:35 53.04366 8.65179 1519 ft 139 kts 85°
2026-05-04 18:36 53.04414 8.66793 1305 ft 140 kts 86°
2026-05-04 18:36 53.04435 8.68404 1111 ft 139 kts 85°
2026-05-04 18:36 53.04477 8.70001 952 ft 138 kts 86°
2026-05-04 18:36 53.04511 8.71588 786 ft 137 kts 85°
2026-05-04 18:37 53.04556 8.73191 588 ft 137 kts 85°
2026-05-04 18:37 53.04592 8.74797 374 ft 140 kts 85°
2026-05-04 18:37 53.04634 8.76401 177 ft 137 kts 85°
2026-05-04 18:37 53.04667 8.77954 26 ft 132 kts 84°
2026-05-04 18:38 53.04700 8.79278 19 ft 90 kts 88°
2026-05-04 18:38 53.04714 8.79881 20 ft 17 kts 84°
2026-05-04 18:38 53.04798 8.79977 19 ft 17 kts
2026-05-04 18:38 53.04874 8.79841 19 ft 18 kts 276°
2026-05-04 18:39 53.04871 8.79620 19 ft 21 kts 268°
2026-05-04 18:39 53.04866 8.79387 19 ft 19 kts 268°
2026-05-04 18:39 53.04861 8.79153 19 ft 22 kts 268°
2026-05-04 18:39 53.04855 8.78894 19 ft 22 kts 268°
2026-05-04 18:40 53.04865 8.78694 21 ft 13 kts 304°
2026-05-04 18:40 53.04949 8.78654 19 ft 14 kts 357°
2026-05-04 18:40 53.05031 8.78578 19 ft 10 kts 320°
2026-05-04 18:40 53.05076 8.78581 21 ft 6 kts 40°
2026-05-04 18:41 53.05102 8.78628 19 ft 3 kts 49°
2026-05-04 18:41 53.05108 8.78640 19 ft 0 kts 49°